P/2021 N2 ( Fuls )

Japanese version
Home page
Updated on December 1, 2021

---------------------------------------------------------------------

* Profile

Discovery Date July 9, 2021
Magnitude 18.3 mag
Discoverer David Carson Fuls (Catalina Sky Survey)

* Pictures

* Orbital Elements

Epoch 2021 July 5.0 TT = JDT 2459400.5
T 2021 Nov. 12.97316 TT                                 Rudenko
q   3.7967373            (2000.0)            P               Q
n   0.05397534     Peri.  177.29179     +0.77594748     -0.61258702
a   6.9343505      Node   221.74320     +0.57441469     +0.78477210
e   0.4524740      Incl.   13.06218     +0.26067848     +0.09418011
P  18.3
From 333 observations 2021 June 27-Oct. 26, mean residual 0".3.

* Finding Charts

* Magnitudes Graph

        m1 = -44.5 + 5 log d + 100   log r(t - 30)  [  ,30]  (             - 2021 Dec. 12)
        m1 =   1.8 + 5 log d +  20.0 log r          [30,  ]  (2021 Dec. 12 -             )

---------------------------------------------------------------------

The orbital elements are published on M.P.E.C. 2021-U109.
The charts are made with StellaNavigator Ver.10 (AstroArts).
The magnitudes graphs are made with Comet for Windows.

---------------------------------------------------------------------

Copyright(C) Seiichi Yoshida (comet@aerith.net). All rights reserved.